Погода в Солнечном Береге

Болгария     42°41′18″N   27°42′24″E
темп.,
°C
ветер,
м/с
пор.,
м/с
влажн.,
%
обл.,
%
осадки,
мм/ч
давл.,
гПа
погр.,
м
24 июля, сб
сб2400:00+18с12650 0.0 1016125
03:00+17ссз22700 0.0 101533
06:00+16ссз33720 0.0 101549
09:00+23св34460 0.0 1015707
12:00+26всв56380 0.0 10151896
15:00+27всв784029 0.0 10141769
18:00+25всв6844100 0.0 10151328
21:00+21всв3457100 0.0 1016186
25 июля, вс
вс2500:00+19с2364100 0.0 1016157
03:00+17с33741 0.0 101688
06:00+16ссз34810 0.0 101783
09:00+23ссв45560 0.0 1017663
12:00+27св67440 0.0 10171422
15:00+28всв78390 0.0 10171723
18:00+27всв67460 0.0 10171189
21:00+21св36760 0.0 1018143
26 июля, пн
пн2600:00+20ссв24830 0.0 1018102
03:00+18ссз23880 0.0 101851
06:00+18ссз23870 0.0 101839
09:00+25с23450 0.0 1019514
12:00+30всв43320 0.0 10191609
15:00+30в54310 0.0 10181563
18:00+28вюв44390 0.0 1018745
21:00+22в22803 0.0 101846
27 июля, вт
вт2700:00+20сз11830 0.0 101915
03:00+20ссз22730 0.0 101923
06:00+19зсз11670 0.0 101922
09:00+27вюв11430 0.0 1019401
12:00+30вюв43370 0.0 10191146
15:00+31вюв43352 0.0 10191064
18:00+29вюв45410 0.0 1018635
21:00+23вюв22730 0.0 101818
28 июля, ср
ср2800:00+21с01790 0.0 101911
03:00+21з11760 0.0 101815
06:00+20зсз11720 0.0 101819
09:00+27ю22460 0.0 1018419
12:00+31юв44340 0.0 1017881
15:00+31юв54380 0.0 1017791
18:00+28юв46490 0.0 1016514
21:00+23юв34850 0.0 101687